EW8130 Weather Reports


time (UTC)temp
F
wind
direction
speed
knots
gust
knots
rain 1hr
in
rain 24hr
in
rain mn
in
humidity
%
barometer
mb
20260508190050 75 76 0.0 2.6 0.00 0.00 0.00 67 990.2
20260508184549 76 82 0.0 4.3 0.00 0.00 0.00 66 990.3
20260508183048 77 122 0.0 5.2 0.00 0.00 0.00 64 990.4
20260508181547 77 108 0.0 5.2 0.00 0.00 0.00 65 990.5
20260508180042 76 124 0.0 0.9 0.00 0.00 0.00 65 990.8
20260508174537 75 31 0.0 1.7 0.00 0.00 0.00 66 991.1
20260508173035 75 78 0.0 1.7 0.00 0.00 0.00 65 991.3
20260508171534 75 18 0.0 2.6 0.00 0.00 0.00 63 991.4
20260508170031 73 104 0.0 0.9 0.00 0.00 0.00 65 991.9
20260508164527 73 144 0.0 1.7 0.00 0.00 0.00 66 992.4
20260508163030 72 113 0.0 0.9 0.00 0.00 0.00 68 992.6
20260508161522 72 107 0.0 5.2 0.00 0.00 0.00 68 992.7
20260508160024 71 73 0.9 7.8 0.00 0.00 0.00 68 992.9
20260508154518 70 131 0.0 4.3 0.00 0.00 0.00 69 993.1
20260508153014 69 58 0.0 2.6 0.00 0.00 0.00 70 993.3
20260508151513 68 34 0.0 1.7 0.00 0.00 0.00 70 993.4
20260508150034 68 86 0.0 6.1 0.00 0.00 0.00 71 993.4
20260508144511 68 62 0.0 7.8 0.00 0.00 0.00 70 993.3
20260508143012 68 37 0.0 1.7 0.00 0.00 0.00 70 993.2
20260508141508 67 93 0.0 1.7 0.00 0.00 0.00 72 993.5
20260508140009 66 39 0.9 6.1 0.00 0.00 0.00 73 993.6
20260508134504 66 21 0.0 1.7 0.00 0.00 0.00 73 993.5
20260508133109 65 18 0.0 1.7 0.00 0.00 0.00 76 993.6
20260508131601 63 331 0.0 0.9 0.00 0.00 0.00 83 993.7
20260508130100 61 359 0.0 0.0 0.00 0.00 0.00 87 993.9
20260508124555 60 317 0.0 0.0 0.00 0.00 0.00 88 993.7
20260508123056 60 254 0.0 0.0 0.00 0.00 0.00 87 993.4
20260508121555 60 359 0.0 0.0 0.00 0.00 0.00 86 993.7
20260508120054 60 26 0.0 0.0 0.00 0.00 0.00 86 993.6
20260508114553 60 79 0.0 0.9 0.00 0.00 0.00 87 993.7
20260508113056 60 237 0.0 0.0 0.00 0.00 0.00 87 994.1
20260508111601 60 267 0.0 0.9 0.00 0.00 0.00 87 994.4
20260508110056 60 166 0.0 0.9 0.00 0.00 0.00 87 993.9
20260508104550 60 243 0.0 1.7 0.00 0.00 0.00 87 993.3
20260508103052 60 46 0.0 1.7 0.00 0.00 0.00 86 992.8
20260508101549 61 128 0.0 1.7 0.00 0.00 0.00 86 992.9
20260508100046 61 74 0.0 0.9 0.00 0.00 0.00 85 993.0
20260508094548 61 157 0.0 0.9 0.00 0.00 0.00 84 993.2
20260508093047 61 75 0.0 0.9 0.00 0.00 0.00 84 993.0
20260508091554 62 113 0.0 0.9 0.00 0.00 0.00 84 993.0
20260508090043 62 35 0.0 0.9 0.00 0.00 0.00 84 992.9
20260508084539 61 127 0.0 0.9 0.00 0.00 0.00 84 993.5
20260508083047 61 173 0.0 0.9 0.00 0.00 0.00 84 994.0
20260508081536 61 280 0.0 0.9 0.00 0.00 0.00 84 994.3
20260508080053 61 209 0.0 0.9 0.00 0.00 0.00 83 994.3
20260508074535 62 166 0.0 0.9 0.00 0.00 0.00 83 994.0
20260508073032 62 299 0.0 0.9 0.00 0.00 0.00 82 993.9
20260508071532 62 96 0.0 0.9 0.00 0.00 0.00 82 993.9
20260508070030 62 204 0.0 0.9 0.00 0.00 0.00 82 994.0
20260508064539 62 131 0.0 0.9 0.00 0.00 0.00 82 994.5
20260508063028 62 120 0.0 0.9 0.00 0.00 0.00 82 994.7
20260508061527 62 231 0.0 0.9 0.00 0.00 0.00 81 994.7
20260508060024 62 106 0.0 0.9 0.00 0.00 0.00 80 994.8
20260508054537 63 139 0.0 0.9 0.00 0.00 0.00 80 994.7
20260508053021 63 85 0.0 0.9 0.00 0.00 0.00 79 994.6
20260508051520 63 89 0.0 0.9 0.00 0.00 0.00 78 994.7
20260508050018 63 319 0.0 0.0 0.00 0.00 0.00 77 994.8
20260508044517 63 117 0.0 0.9 0.00 0.00 0.00 76 994.8
20260508043016 63 320 0.0 0.0 0.00 0.00 0.00 76 994.5
20260508041516 62 224 0.0 0.0 0.00 0.00 0.00 77 994.8
20260508040035 62 276 0.0 0.0 0.00 0.00 0.00 77 994.4
20260508034514 63 359 0.0 0.0 0.00 0.00 0.00 75 994.4
20260508033017 64 333 0.0 0.0 0.00 0.00 0.00 74 994.1
20260508031517 64 112 0.0 0.0 0.00 0.00 0.00 73 994.3
20260508030014 65 168 0.0 0.0 0.00 0.00 0.00 73 994.3
20260508024521 65 25 0.0 0.9 0.00 0.00 0.00 72 994.2
20260508023013 65 125 0.0 0.9 0.00 0.00 0.00 72 994.2
20260508021512 65 77 0.0 0.9 0.00 0.00 0.00 71 994.1
20260508020011 65 82 0.0 0.0 0.00 0.00 0.00 70 993.7
20260508014510 66 283 0.0 0.9 0.00 0.00 0.00 69 993.9
20260508013011 66 43 0.0 0.9 0.00 0.00 0.00 68 994.0
20260508011509 67 68 0.0 0.9 0.00 0.00 0.00 68 993.9
20260508010013 67 115 0.0 0.9 0.00 0.00 0.00 67 993.8
20260508004507 67 87 0.0 0.9 0.00 0.00 0.00 67 993.8
20260508003007 68 70 0.0 0.9 0.00 0.00 0.00 67 994.0
20260508001506 68 39 0.0 0.9 0.00 0.00 0.00 65 994.1
20260508000006 68 89 0.0 0.9 0.00 0.00 0.00 65 994.1
20260507234508 68 359 0.0 0.9 0.00 0.00 0.00 64 994.0
20260507233004 68 359 0.0 1.7 0.00 0.00 0.00 63 994.0
20260507231503 68 359 0.0 1.7 0.00 0.00 0.00 63 994.1
20260507230009 68 359 0.0 2.6 0.00 0.00 0.00 63 994.3
20260507224502 69 359 0.0 1.7 0.00 0.00 0.00 63 994.2
20260507223002 69 62 0.0 0.9 0.00 0.00 0.00 62 994.3
20260507221501 69 65 0.0 1.7 0.00 0.00 0.00 62 994.2
20260507214603 70 359 0.0 1.7 0.00 0.00 0.00 60 994.4
20260507213058 71 359 0.0 0.9 0.00 0.00 0.00 58 994.8
20260507211602 72 359 0.0 2.6 0.00 0.00 0.00 56 995.0
20260507210114 72 19 0.0 0.9 0.00 0.00 0.00 56 994.9
20260507204554 73 79 0.0 0.9 0.00 0.00 0.00 55 994.9
20260507203055 73 295 0.0 0.9 0.00 0.00 0.00 54 994.8
20260507201555 72 359 0.0 0.9 0.00 0.00 0.00 54 995.3
20260507200056 73 44 0.0 1.7 0.00 0.00 0.00 52 995.5
20260507194556 73 359 0.0 4.3 0.00 0.00 0.00 52 995.7
20260507193048 73 11 0.0 7.8 0.00 0.00 0.00 51 995.9
20260507191549 73 359 0.0 2.6 0.00 0.00 0.00 51 996.3